CZ-2D DEB

基本信息
目录编号:
43490
目录名称:
CZ-2D DEB
国际标识:
2018-048E
轨道中心:
EARTH
物体状态:
在轨
发射日期:
2018-06-02 UTC
轨道信息
数据来源: 国际轨道数据
星历时间: 2026-09-05T10:14:14+0800
半长轴: 6954.894km
偏心率: 0.0021419
轨道倾角: 98.281°
近地点辐角: 242.005°
升交点赤经: 60.330°
平近点角: 117.901°
近地点: 561.86km
远地点: 591.654km
周期: 96.205分钟
每日圈数: 14.968112
详细信息
发射场:
JSC
轨道高度:
LEO
数据来源:
AOE Integration Group
参考系:
TEME
时间系统:
UTC
历元类型:
SGP4
2D轨道图
3D轨道图
轨道高度分析图
轨道倾角分析图
轨道综合分析图
查看轨道综合分析图